Terug naar catalogus

NORSAT 3

ActiefWetenschapSSO
NORAD 48272·PAYLOAD·🇳🇴 Norway

Gelanceerd Apr 29, 2021 vanaf Guiana Space Centre

Loading…

Volgende Passages (komende 24 uur)

TLE

VersSource: Space-Track

Epoch: Sep 14, 2026, 22:19 UTC

1 48272U 21034E   26257.93012550  .00002037  00000-0  14419-3 0  9994
2 48272  97.5220 313.0431 0007363  10.0659 350.0715 15.05917792293343

Volg NORSAT 3 in realtime met AllMySat

Download on the App Store